UAL1822 KEWR-KEYW

Flight info

Callsign UAL1822
Flight time N/A
Altitude 36000
Route ELVAE NECCK WHITE Q409 CRPLR Q85 ROYCO Q83 JEVED Q97 DEBRL/N0453F370 Q97 EBAYY FNTSY1
Aircraft A319/M-SDE3FGHIRWY/LB1

Departure

Time 2026-04-22 14:09
Airport Newark Liberty International Airport (KEWR)

Arrival

Time N/A
Airport Key West International Airport (KEYW)
Time Latitude Longitude Altitude Speed Heading
2026-04-22 13:29 40.69602 -74.17350 23 ft 0 kts 142°
2026-04-22 13:57 40.69612 -74.17360 22 ft 4 kts 139°
2026-04-22 13:57 40.69630 -74.17377 16 ft 3 kts 173°
2026-04-22 13:57 40.69646 -74.17382 24 ft 4 kts 89°
2026-04-22 13:58 40.69635 -74.17405 23 ft 4 kts 41°
2026-04-22 13:58 40.69630 -74.17411 22 ft 0 kts 41°
2026-04-22 14:02 40.69631 -74.17410 22 ft 0 kts 41°
2026-04-22 14:03 40.69631 -74.17409 22 ft 0 kts 41°
2026-04-22 14:03 40.69641 -74.17399 23 ft 3 kts 41°
2026-04-22 14:04 40.69663 -74.17373 24 ft 5 kts 41°
2026-04-22 14:04 40.69698 -74.17333 22 ft 8 kts 42°
2026-04-22 14:04 40.69722 -74.17268 22 ft 8 kts 69°
2026-04-22 14:04 40.69720 -74.17193 22 ft 10 kts 128°
2026-04-22 14:05 40.69658 -74.17139 22 ft 12 kts 155°
2026-04-22 14:05 40.69603 -74.17097 22 ft 5 kts 117°
2026-04-22 14:05 40.69628 -74.16973 25 ft 9 kts 70°
2026-04-22 14:06 40.69652 -74.16881 22 ft 12 kts 71°
2026-04-22 14:06 40.69675 -74.16769 22 ft 14 kts 69°
2026-04-22 14:06 40.69759 -74.16694 21 ft 16 kts 24°
2026-04-22 14:06 40.69866 -74.16625 21 ft 18 kts 26°
2026-04-22 14:07 40.69979 -74.16550 21 ft 18 kts 26°
2026-04-22 14:07 40.70056 -74.16494 22 ft 11 kts 45°
2026-04-22 14:07 40.70061 -74.16408 20 ft 11 kts 97°
2026-04-22 14:07 40.70007 -74.16379 19 ft 10 kts 212°
2026-04-22 14:08 40.69910 -74.16438 19 ft 30 kts 204°
2026-04-22 14:08 40.69525 -74.16680 23 ft 91 kts 206°
2026-04-22 14:08 40.68774 -74.17154 24 ft 146 kts 205°
2026-04-22 14:08 40.68143 -74.17543 22 ft 177 kts 205°
2026-04-22 14:09 40.67507 -74.17943 233 ft 185 kts 206°
2026-04-22 14:09 40.66367 -74.18718 1052 ft 185 kts 203°
2026-04-22 14:09 40.65235 -74.19508 1910 ft 186 kts 207°
2026-04-22 14:09 40.64065 -74.20394 2428 ft 204 kts 210°
2026-04-22 14:10 40.62789 -74.21379 3061 ft 216 kts 212°
2026-04-22 14:10 40.61472 -74.22400 3773 ft 223 kts 213°
2026-04-22 14:10 40.60112 -74.23449 4485 ft 230 kts 214°
2026-04-22 14:10 40.58714 -74.24524 5204 ft 235 kts 214°
2026-04-22 14:11 40.57284 -74.25616 5917 ft 240 kts 213°
2026-04-22 14:11 40.55756 -74.26551 6678 ft 247 kts 200°
2026-04-22 14:11 40.54032 -74.26869 7453 ft 256 kts 182°
2026-04-22 14:11 40.52253 -74.26464 8232 ft 265 kts 165°
2026-04-22 14:12 40.50516 -74.25594 9012 ft 269 kts 163°
2026-04-22 14:12 40.48757 -74.24710 9754 ft 273 kts 163°
2026-04-22 14:12 40.46972 -74.23823 10411 ft 276 kts 164°
2026-04-22 14:12 40.45158 -74.22929 11008 ft 283 kts 165°
2026-04-22 14:13 40.43242 -74.21993 11289 ft 305 kts 164°
2026-04-22 14:13 40.41175 -74.20983 11483 ft 329 kts 164°
2026-04-22 14:13 40.38987 -74.19908 11626 ft 352 kts 163°
2026-04-22 14:13 40.36638 -74.18744 11886 ft 368 kts 163°
2026-04-22 14:14 40.34214 -74.17579 12445 ft 373 kts 167°
2026-04-22 14:14 40.31677 -74.16882 13083 ft 373 kts 178°
2026-04-22 14:14 40.29091 -74.16817 13684 ft 371 kts 189°
2026-04-22 14:14 40.26552 -74.17375 14251 ft 370 kts 198°
2026-04-22 14:15 40.24032 -74.18150 14782 ft 374 kts 199°
2026-04-22 14:15 40.21485 -74.18918 15337 ft 377 kts 198°
2026-04-22 14:15 40.18913 -74.19686 15903 ft 381 kts 198°
2026-04-22 14:15 40.16317 -74.20459 16457 ft 384 kts 198°
2026-04-22 14:16 40.13694 -74.21243 17041 ft 388 kts 198°
2026-04-22 14:16 40.11051 -74.22035 17622 ft 392 kts 199°
2026-04-22 14:16 40.08383 -74.22835 18202 ft 396 kts 199°
2026-04-22 14:16 40.05687 -74.23642 18722 ft 399 kts 199°
2026-04-22 14:17 40.02981 -74.24502 19201 ft 400 kts 203°
2026-04-22 14:17 40.00402 -74.25811 19697 ft 396 kts 212°
2026-04-22 14:17 39.98044 -74.27633 20187 ft 393 kts 221°
2026-04-22 14:17 39.95841 -74.29746 20668 ft 395 kts 223°
2026-04-22 14:18 39.93619 -74.31875 21137 ft 398 kts 223°
2026-04-22 14:18 39.91373 -74.34015 21592 ft 401 kts 222°
2026-04-22 14:18 39.89112 -74.36158 22032 ft 404 kts 222°
2026-04-22 14:18 39.86865 -74.38286 22489 ft 406 kts 222°
2026-04-22 14:19 39.84574 -74.40454 22927 ft 409 kts 222°
2026-04-22 14:19 39.82281 -74.42661 23384 ft 409 kts 225°
2026-04-22 14:19 39.80204 -74.45168 23792 ft 407 kts 232°
2026-04-22 14:19 39.78224 -74.47809 24134 ft 409 kts 232°
2026-04-22 14:20 39.74226 -74.53137 24832 ft 414 kts 232°
2026-04-22 14:20 39.72205 -74.55820 25177 ft 416 kts 232°
2026-04-22 14:20 39.70176 -74.58508 25523 ft 418 kts 232°
2026-04-22 14:21 39.66076 -74.63922 26211 ft 422 kts 232°
2026-04-22 14:21 39.64009 -74.66646 26553 ft 425 kts 232°
2026-04-22 14:22 39.59844 -74.72138 27203 ft 429 kts 232°
2026-04-22 14:22 39.57744 -74.74902 27524 ft 431 kts 232°
2026-04-22 14:22 39.53521 -74.80467 28133 ft 435 kts 232°
2026-04-22 14:23 39.51391 -74.83266 28441 ft 437 kts 232°
2026-04-22 14:23 39.49249 -74.86075 28743 ft 439 kts 231°
2026-04-22 14:23 39.47120 -74.88860 29003 ft 442 kts 231°
2026-04-22 14:23 39.44953 -74.91693 29279 ft 444 kts 231°
2026-04-22 14:24 39.42784 -74.94531 29653 ft 443 kts 231°
2026-04-22 14:24 39.40614 -74.97365 30066 ft 443 kts 231°
2026-04-22 14:24 39.38448 -75.00188 30439 ft 442 kts 231°
2026-04-22 14:24 39.36284 -75.03006 30796 ft 441 kts 231°
2026-04-22 14:25 39.34124 -75.05814 31151 ft 440 kts 231°
2026-04-22 14:25 39.31965 -75.08617 31506 ft 439 kts 232°
2026-04-22 14:25 39.29811 -75.11412 31869 ft 439 kts 231°
2026-04-22 14:25 39.27602 -75.14157 32156 ft 441 kts 229°
2026-04-22 14:26 39.25335 -75.16840 32446 ft 443 kts 228°
2026-04-22 14:26 39.23033 -75.19485 32781 ft 443 kts 228°
2026-04-22 14:26 39.20722 -75.22113 33127 ft 443 kts 227°
2026-04-22 14:26 39.18415 -75.24742 33462 ft 442 kts 228°
2026-04-22 14:27 39.16121 -75.27380 33812 ft 441 kts 228°
2026-04-22 14:27 39.13842 -75.30022 34168 ft 440 kts 228°
2026-04-22 14:27 39.11601 -75.32636 34462 ft 440 kts 228°
2026-04-22 14:27 39.09339 -75.35289 34725 ft 440 kts 228°
2026-04-22 14:28 39.07075 -75.37941 35019 ft 440 kts 228°
2026-04-22 14:28 39.04728 -75.40488 35277 ft 445 kts 221°
2026-04-22 14:28 39.02061 -75.42564 35529 ft 452 kts 211°
2026-04-22 14:28 38.99113 -75.44068 35732 ft 461 kts 201°
2026-04-22 14:29 38.95955 -75.44930 35896 ft 469 kts 191°
2026-04-22 14:29 38.89455 -75.45820 35945 ft 470 kts 191°
2026-04-22 14:30 38.82974 -75.46704 35947 ft 468 kts 191°
2026-04-22 14:30 38.77592 -75.47443 35948 ft 468 kts 191°
2026-04-22 14:31 38.71121 -75.48339 35948 ft 468 kts 191°
2026-04-22 14:31 38.64657 -75.49231 35945 ft 467 kts 191°
2026-04-22 14:32 38.58188 -75.50106 35947 ft 467 kts 191°
2026-04-22 14:32 38.51729 -75.50978 35953 ft 467 kts 191°
2026-04-22 14:33 38.45278 -75.51853 35952 ft 466 kts 191°
2026-04-22 14:33 38.38823 -75.52729 35939 ft 465 kts 192°
2026-04-22 14:34 38.32713 -75.54937 36105 ft 452 kts 210°
2026-04-22 14:34 38.27413 -75.59061 36138 ft 445 kts 220°
2026-04-22 14:35 38.22336 -75.63496 36128 ft 446 kts 219°
2026-04-22 14:35 38.17214 -75.67936 36140 ft 446 kts 219°
2026-04-22 14:36 38.12060 -75.72403 36139 ft 445 kts 219°
2026-04-22 14:36 38.06941 -75.76835 36139 ft 445 kts 219°
2026-04-22 14:37 38.01856 -75.81238 36107 ft 445 kts 219°
2026-04-22 14:37 37.96737 -75.85663 36118 ft 446 kts 219°
2026-04-22 14:38 37.91605 -75.90085 36122 ft 446 kts 219°
2026-04-22 14:38 37.86466 -75.94504 36126 ft 446 kts 219°
2026-04-22 14:39 37.81331 -75.98911 36123 ft 446 kts 219°
2026-04-22 14:39 37.76194 -76.03318 36122 ft 446 kts 219°
2026-04-22 14:40 37.68492 -76.09912 36127 ft 446 kts 219°
2026-04-22 14:40 37.63365 -76.14311 36134 ft 446 kts 219°
2026-04-22 14:41 37.58189 -76.18642 36115 ft 448 kts 217°
2026-04-22 14:41 37.52845 -76.22702 36131 ft 449 kts 215°
2026-04-22 14:42 37.47477 -76.26647 36140 ft 450 kts 216°
2026-04-22 14:42 37.42098 -76.30655 36143 ft 449 kts 216°
2026-04-22 14:43 37.36747 -76.34711 36142 ft 449 kts 216°
2026-04-22 14:43 37.31395 -76.38772 36143 ft 449 kts 216°
2026-04-22 14:44 37.26038 -76.42805 36163 ft 449 kts 216°
2026-04-22 14:44 37.20681 -76.46837 36167 ft 449 kts 216°
2026-04-22 14:45 37.15327 -76.50870 36141 ft 449 kts 216°
2026-04-22 14:45 37.09967 -76.54895 36150 ft 449 kts 216°
2026-04-22 14:46 37.04637 -76.58883 36152 ft 449 kts 216°
2026-04-22 14:46 36.99269 -76.62892 36165 ft 449 kts 216°
2026-04-22 14:47 36.93901 -76.66900 36148 ft 449 kts 216°
2026-04-22 14:47 36.88528 -76.70896 36178 ft 449 kts 216°
2026-04-22 14:48 36.83154 -76.74886 36187 ft 449 kts 216°
2026-04-22 14:48 36.77780 -76.78869 36191 ft 449 kts 216°
2026-04-22 14:49 36.72406 -76.82854 36183 ft 449 kts 216°
2026-04-22 14:49 36.67041 -76.86833 36181 ft 449 kts 216°
2026-04-22 14:50 36.61666 -76.90801 36181 ft 449 kts 216°
2026-04-22 14:50 36.56325 -76.94744 36185 ft 449 kts 216°
2026-04-22 14:51 36.50946 -76.98707 36176 ft 449 kts 216°
2026-04-22 14:51 36.45567 -77.02657 36202 ft 449 kts 216°
2026-04-22 14:52 36.40190 -77.06590 36213 ft 448 kts 216°
2026-04-22 14:52 36.34826 -77.10526 36213 ft 448 kts 216°
2026-04-22 14:53 36.29466 -77.14452 36197 ft 447 kts 216°
2026-04-22 14:53 36.24102 -77.18363 36212 ft 447 kts 216°
2026-04-22 14:54 36.18751 -77.22260 36218 ft 446 kts 216°
2026-04-22 14:54 36.13399 -77.26159 36208 ft 446 kts 216°
2026-04-22 14:55 36.08050 -77.30058 36207 ft 447 kts 216°
2026-04-22 14:55 36.02882 -77.34231 36216 ft 440 kts 223°
2026-04-22 14:56 35.98069 -77.38903 36229 ft 440 kts 223°
2026-04-22 14:56 35.93257 -77.43551 36233 ft 439 kts 223°
2026-04-22 14:57 35.88442 -77.48193 36232 ft 439 kts 223°
2026-04-22 14:57 35.83630 -77.52827 36228 ft 439 kts 223°
2026-04-22 14:58 35.78833 -77.57455 36239 ft 438 kts 223°
2026-04-22 14:58 35.74065 -77.62036 36231 ft 438 kts 223°
2026-04-22 14:59 35.69259 -77.66646 36233 ft 438 kts 223°
2026-04-22 14:59 35.64451 -77.71252 36233 ft 438 kts 223°
2026-04-22 15:00 35.59638 -77.75853 36233 ft 438 kts 223°
2026-04-22 15:00 35.54833 -77.80434 36249 ft 437 kts 223°
2026-04-22 15:01 35.50026 -77.85011 36258 ft 437 kts 223°
2026-04-22 15:01 35.45227 -77.89573 36250 ft 436 kts 223°
2026-04-22 15:02 35.40431 -77.94136 36248 ft 436 kts 223°
2026-04-22 15:02 35.35633 -77.98699 36229 ft 436 kts 223°
2026-04-22 15:03 35.30833 -78.03250 36227 ft 437 kts 223°
2026-04-22 15:03 35.26024 -78.07796 36231 ft 437 kts 223°
2026-04-22 15:04 35.21206 -78.12339 36236 ft 437 kts 223°
2026-04-22 15:04 35.16420 -78.16850 36228 ft 437 kts 223°
2026-04-22 15:05 35.11611 -78.21382 36271 ft 436 kts 223°
2026-04-22 15:05 35.06810 -78.25895 36286 ft 435 kts 223°
2026-04-22 15:06 35.02010 -78.30399 36289 ft 435 kts 223°